Wind_Speed
41 41 40 40 41 42 43 43 44 44 45 46 46 47 48 49 50 51 51 51 50 45 42 47 48 50 46 44 41 42 42 42 37 35 36 27 25 18 22 21 20 25 26
36 37 38 39 40 40 40 41 42 43 45 46 48 49 49 49 50 50 49 49 47 45 44 44 52 53 56 56 47 46 44 43 42 35 37 32 30 32 24 20 23 26 25
35 37 36 38 38 40 41 43 45 46 48 48 49 50 50 49 49 49 48 47 48 47 45 47 51 59 58 60 47 53 50 48 45 40 38 35 33 33 29 26 26 25 25
36 36 37 39 41 44 45 46 48 48 49 50 50 50 51 51 52 51 49 47 47 47 45 45 47 51 55 45 60 59 56 53 50 47 41 37 35 35 30 29 28 28 26
36 39 41 43 45 47 48 49 50 51 50 50 50 51 51 51 52 51 48 47 46 44 45 46 46 47 45 43 57 68 65 59 53 51 48 44 35 34 35 31 30 31 28
41 42 44 46 48 50 51 51 51 51 51 51 49 48 47 47 47 46 47 46 44 44 41 42 43 44 42 40 36 50 70 63 59 57 53 49 44 37 37 35 32 29 29
44 46 48 50 51 53 52 52 51 51 48 47 46 44 41 42 44 45 47 46 44 43 40 39 39 40 40 37 35 38 49 58 57 56 54 51 49 44 42 36 36 32 30
47 50 50 52 53 52 52 51 49 46 44 44 45 46 48 52 53 57 54 48 46 45 43 40 37 37 37 37 34 33 35 47 56 54 52 49 50 53 49 45 38 37 36
50 50 51 52 51 51 49 48 47 45 46 48 50 53 56 62 62 61 53 52 49 47 46 44 42 39 36 35 35 36 37 36 40 41 51 54 54 54 55 50 46 42 39
51 52 51 52 50 48 46 47 49 51 51 53 56 61 65 67 57 51 48 46 48 47 46 46 44 43 39 38 37 36 36 38 39 38 35 34 42 51 50 51 56 50 46
51 51 50 48 46 47 48 51 52 54 57 61 63 65 62 53 48 44 44 43 44 43 44 43 43 43 42 38 38 37 35 34 35 37 38 36 36 41 51 49 52 55 51
49 47 47 47 49 52 52 54 57 61 63 62 56 53 51 47 44 41 40 41 41 41 42 44 45 42 42 43 40 39 39 38 38 36 35 39 38 37 45 50 46 50 45
45 46 46 50 53 53 56 61 62 58 52 49 48 46 43 42 41 41 39 38 38 39 39 40 42 44 45 45 45 44 43 44 42 39 38 36 39 38 36 43 43 41 46
46 48 50 52 56 60 59 55 52 52 51 49 47 45 43 41 39 39 38 38 37 38 39 40 40 42 44 46 46 45 43 43 44 45 43 40 38 39 44 35 38 39 37
47 48 53 54 53 51 52 53 54 56 56 54 53 50 46 41 40 40 37 37 37 36 36 38 40 41 42 43 44 44 44 42 42 43 44 42 41 41 41 45 39 37 37
47 47 48 50 53 55 56 57 58 58 58 57 56 53 49 44 40 38 36 33 33 34 33 35 37 39 38 38 38 38 40 41 42 40 41 42 40 40 41 42 47 44 43
43 46 49 52 53 52 48 45 42 42 45 48 49 49 49 43 42 38 36 35 33 33 32 31 31 33 34 34 33 33 34 35 37 39 41 40 39 37 38 42 44 45 46
45 47 45 39 40 43 44 41 40 39 38 41 39 39 39 39 38 39 36 33 33 32 32 29 26 26 28 27 27 29 30 32 32 34 37 40 41 40 37 36 39 44 46
36 34 39 39 37 33 30 30 30 28 26 25 25 28 29 28 31 35 36 32 31 30 28 27 24 22 22 22 24 24 25 27 28 28 30 33 38 42 41 39 38 38 41
35 35 28 24 23 24 25 24 24 24 24 24 23 22 21 20 20 25 30 31 30 29 27 25 25 22 21 21 21 22 23 25 28 30 31 34 38 40 42 44 42 41 38
25 22 21 24 25 26 25 24 26 25 28 28 26 25 21 19 21 24 25 28 28 29 29 27 25 24 23 22 21 21 21 24 25 29 29 33 38 38 44 42 42 42 40
21 21 23 24 21 18 22 22 26 30 25 22 18 18 19 19 21 24 25 27 30 30 30 30 28 27 26 24 22 22 21 22 25 26 29 29 32 36 41 39 39 40 40
23 22 23 21 17 20 21 22 29 25 24 14 19 21 23 18 22 28 24 22 25 29 31 31 30 29 27 25 23 22 20 21 20 20 21 25 28 33 39 39 38 39 37
23 21 20 18 16 20 19 25 25 27 24 14 17 22 23 25 22 28 20 18 20 22 28 30 31 30 27 25 24 21 18 16 17 20 20 22 27 31 36 35 36 38 37
23 21 19 18 16 18 17 22 25 27 23 15 17 21 25 26 23 25 23 23 21 19 22 27 29 29 28 25 22 18 16 17 21 25 22 21 21 29 31 35 37 38 38
24 23 20 18 16 16 17 19 25 26 23 20 19 21 23 24 24 22 26 26 22 17 15 21 25 26 26 23 19 17 17 20 22 26 25 24 23 26 32 37 39 41 44
Wind_Direction
285 284 284 283 282 282 282 283 285 286 287 287 287 287 287 286 285 285 283 282 280 277 270 265 267 253 245 240 232 241 247 249 249 249 250 243 250 255 230 264 271 272 284
285 285 285 286 285 285 286 286 287 288 288 289 287 286 285 283 281 281 280 280 279 275 266 264 263 263 256 240 233 236 243 247 251 244 244 244 242 250 264 269 266 269 279
285 286 286 287 287 286 287 288 289 290 289 288 287 285 284 282 281 282 282 281 279 278 271 263 260 261 260 255 243 234 236 240 246 245 241 244 238 241 248 257 257 264 275
290 288 288 287 287 287 288 289 289 289 288 287 287 287 286 285 284 283 281 278 277 278 277 270 266 262 267 268 240 238 230 236 238 243 241 241 239 240 244 252 257 263 274
287 288 289 288 288 289 291 291 291 291 290 290 289 288 288 286 285 284 283 280 278 277 276 275 271 265 270 268 257 240 229 229 232 239 243 242 238 241 243 246 253 259 265
287 289 289 289 291 292 293 292 291 290 289 289 290 290 290 289 288 287 283 280 277 276 277 274 274 274 271 268 269 255 238 225 228 229 234 241 243 238 241 244 249 257 259
290 290 290 291 292 293 292 290 289 289 289 289 289 289 288 290 294 294 290 284 279 274 275 275 274 273 271 268 262 259 249 241 237 238 239 243 245 244 241 244 246 250 257
286 287 290 290 290 290 289 289 288 288 287 287 287 288 289 291 292 293 287 284 282 280 275 272 271 271 272 272 270 263 267 250 242 243 239 241 249 249 244 245 245 247 252
287 288 288 289 289 289 288 288 289 288 288 288 285 289 292 294 293 292 288 283 279 277 276 274 272 270 268 267 264 262 259 261 253 245 244 244 251 246 245 244 245 245 250
286 286 287 287 287 287 288 288 288 289 289 288 287 289 293 297 293 288 285 282 278 276 273 271 269 272 270 267 266 264 262 258 257 263 259 257 250 240 239 243 245 248 250
282 284 284 283 285 288 288 289 290 291 291 292 295 295 294 293 290 285 281 278 275 273 273 273 267 267 269 265 262 259 258 262 259 256 251 256 256 249 243 241 244 245 246
283 282 281 284 287 289 290 290 291 293 294 296 294 293 291 290 289 285 281 279 275 271 270 270 269 267 265 264 262 262 261 257 257 256 250 247 245 251 239 237 237 238 234
278 279 282 286 287 287 290 291 295 297 296 296 295 295 294 289 286 284 280 276 276 274 270 267 267 266 265 265 265 263 260 257 255 254 253 246 241 234 248 238 230 236 219
278 282 285 287 289 293 295 296 295 295 294 293 293 293 291 288 287 284 280 279 275 274 273 271 268 265 263 261 261 261 259 254 252 250 249 246 241 234 232 238 233 233 228
283 285 289 293 294 294 295 294 294 293 292 291 290 289 288 287 285 281 279 278 277 275 272 271 270 267 263 261 259 256 253 249 248 245 244 245 240 235 230 230 226 229 226
291 290 293 293 294 295 295 294 294 291 289 288 286 284 282 282 281 281 281 278 276 276 275 271 267 266 263 259 257 253 248 247 243 243 241 240 239 235 232 228 228 223 225
293 295 298 298 296 296 297 298 298 297 297 294 286 280 278 274 276 276 275 277 279 278 277 274 268 263 260 257 252 249 246 244 241 239 239 239 239 237 233 229 226 226 222
301 299 299 301 301 300 299 300 300 298 295 298 295 288 279 273 270 272 272 272 272 273 273 272 268 261 257 253 248 245 244 243 242 238 235 235 235 234 231 228 226 226 224
305 306 306 306 308 311 313 312 310 309 309 312 308 299 293 283 271 268 271 272 271 270 268 268 266 261 254 250 247 244 242 240 238 236 235 234 233 232 231 227 223 223 224
312 313 317 320 324 327 326 322 321 322 321 321 321 318 313 310 293 279 274 271 268 267 263 259 259 257 254 249 247 245 243 246 248 245 243 237 233 231 226 223 219 219 220
321 322 324 326 322 319 321 325 326 326 325 322 321 322 326 318 305 295 286 277 268 263 261 259 254 251 249 248 245 244 246 247 254 249 251 239 232 224 216 216 214 214 215
320 321 322 321 322 328 331 330 330 334 337 336 344 347 340 339 332 320 297 279 271 263 256 252 251 250 247 244 242 243 248 251 259 254 251 233 221 213 208 210 208 209 210
330 326 327 329 327 331 334 331 334 338 341 343 342 343 341 328 332 334 315 290 272 267 259 251 246 244 242 240 238 243 249 255 252 238 217 208 203 202 200 202 202 204 206
337 330 328 329 323 330 330 336 340 339 337 331 340 348 346 345 335 341 333 314 298 274 259 252 245 241 236 230 229 238 243 237 213 194 188 194 199 200 199 196 197 196 196
342 339 331 331 321 325 328 342 343 344 346 337 340 345 349 351 344 346 345 333 317 290 263 247 240 232 224 218 220 231 232 214 204 201 198 195 192 190 193 194 194 191 189
346 345 340 333 326 323 330 339 345 348 350 351 349 346 346 352 355 350 358 355 346 321 280 242 230 220 210 206 214 218 215 206 204 204 203 203 204 197 192 191 190 187 192
Height
5795 5793 5791 5789 5787 5786 5785 5783 5782 5779 5777 5776 5775 5773 5771 5768 5765 5763 5760 5760 5759 5760 5760 5760 5760 5759 5760 5762 5766 5770 5772 5771 5773 5775 5776 5784 5780 5779 5779 5785 5786 5788 5786
5784 5782 5780 5778 5777 5775 5774 5773 5771 5769 5767 5764 5762 5760 5759 5757 5754 5752 5750 5748 5748 5747 5748 5748 5747 5748 5751 5750 5755 5757 5762 5762 5764 5770 5769 5775 5776 5775 5777 5778 5783 5782 5782
5775 5773 5772 5768 5767 5765 5763 5762 5760 5757 5755 5752 5749 5747 5745 5744 5743 5740 5737 5736 5735 5734 5735 5735 5736 5735 5736 5738 5741 5744 5748 5752 5754 5757 5760 5763 5768 5770 5772 5773 5775 5776 5776
5763 5762 5761 5759 5757 5755 5753 5751 5748 5745 5742 5739 5736 5733 5730 5728 5727 5726 5725 5722 5722 5721 5720 5721 5721 5721 5721 5724 5725 5728 5734 5738 5741 5745 5749 5752 5757 5760 5762 5764 5767 5767 5769
5754 5751 5750 5748 5746 5744 5742 5739 5735 5731 5728 5725 5722 5719 5717 5714 5713 5711 5710 5709 5708 5708 5706 5706 5707 5708 5708 5710 5710 5714 5716 5721 5727 5732 5738 5740 5746 5749 5752 5754 5758 5760 5762
5743 5741 5740 5737 5735 5732 5729 5725 5722 5719 5715 5711 5708 5706 5704 5701 5699 5698 5694 5694 5695 5694 5693 5693 5693 5693 5694 5697 5695 5699 5702 5705 5711 5715 5722 5728 5732 5739 5741 5746 5749 5752 5755
5732 5729 5727 5726 5722 5719 5716 5713 5710 5707 5703 5699 5696 5693 5691 5689 5688 5686 5681 5680 5680 5680 5680 5680 5680 5681 5681 5683 5683 5687 5691 5695 5702 5707 5713 5717 5721 5726 5732 5736 5740 5743 5747
5722 5719 5717 5714 5710 5707 5703 5699 5697 5695 5690 5687 5684 5681 5679 5675 5674 5672 5668 5666 5666 5665 5665 5667 5668 5668 5668 5669 5672 5674 5678 5681 5687 5694 5701 5706 5710 5715 5719 5725 5730 5733 5737
5710 5708 5705 5701 5698 5694 5690 5688 5685 5683 5680 5676 5671 5668 5665 5661 5658 5655 5653 5651 5651 5651 5650 5651 5653 5656 5658 5659 5662 5663 5665 5670 5670 5675 5685 5693 5697 5700 5707 5715 5718 5724 5729
5699 5695 5692 5689 5685 5681 5679 5676 5672 5670 5667 5662 5658 5654 5650 5646 5641 5640 5637 5637 5636 5636 5636 5636 5640 5641 5644 5647 5648 5650 5653 5657 5661 5664 5668 5673 5679 5686 5691 5701 5708 5712 5718
5686 5683 5679 5677 5674 5670 5667 5663 5660 5656 5653 5649 5645 5640 5635 5631 5627 5625 5622 5621 5623 5622 5622 5623 5626 5629 5630 5633 5636 5640 5643 5646 5649 5655 5658 5662 5668 5673 5680 5686 5693 5701 5708
5674 5670 5668 5665 5662 5658 5654 5650 5646 5642 5639 5634 5629 5625 5621 5617 5614 5612 5610 5609 5608 5608 5609 5610 5612 5615 5617 5619 5622 5626 5630 5634 5638 5641 5646 5651 5656 5659 5665 5672 5679 5687 5694
5662 5660 5657 5653 5649 5645 5641 5637 5632 5627 5623 5619 5616 5612 5608 5604 5601 5600 5599 5598 5597 5595 5596 5597 5598 5600 5602 5606 5608 5612 5616 5620 5625 5630 5634 5639 5643 5646 5653 5661 5668 5674 5680
5651 5648 5645 5641 5636 5631 5627 5622 5618 5613 5609 5606 5602 5599 5596 5593 5589 5587 5586 5585 5586 5585 5584 5584 5585 5586 5587 5590 5593 5597 5601 5605 5611 5616 5621 5626 5630 5636 5642 5648 5655 5662 5671
5641 5637 5632 5628 5622 5617 5612 5608 5603 5597 5594 5590 5587 5584 5582 5581 5577 5575 5575 5574 5572 5572 5573 5572 5571 5571 5573 5575 5578 5583 5587 5591 5596 5600 5606 5611 5618 5623 5629 5635 5644 5651 5660
5630 5625 5620 5615 5609 5603 5597 5592 5586 5581 5577 5573 5569 5566 5567 5566 5565 5563 5561 5561 5560 5560 5560 5560 5559 5558 5559 5562 5565 5568 5573 5577 5583 5588 5593 5598 5604 5610 5617 5624 5633 5642 5649
5619 5614 5607 5601 5596 5589 5582 5577 5573 5567 5561 5555 5551 5549 5547 5550 5549 5550 5550 5549 5549 5548 5548 5547 5547 5546 5548 5551 5553 5556 5560 5564 5569 5575 5580 5586 5592 5598 5605 5613 5621 5629 5638
5607 5601 5596 5589 5583 5577 5571 5565 5559 5555 5551 5544 5536 5533 5532 5533 5535 5535 5536 5538 5538 5537 5537 5537 5537 5537 5538 5540 5543 5547 5550 5554 5558 5563 5569 5574 5580 5587 5594 5601 5609 5616 5624
5596 5591 5585 5578 5572 5566 5561 5556 5551 5545 5540 5535 5529 5523 5520 5520 5521 5521 5522 5525 5525 5526 5527 5527 5527 5528 5530 5532 5534 5537 5541 5545 5549 5554 5558 5563 5569 5575 5583 5590 5598 5605 5614
5587 5581 5576 5571 5566 5562 5557 5552 5547 5541 5536 5531 5525 5521 5517 5514 5512 5511 5511 5512 5514 5514 5517 5518 5519 5520 5522 5524 5526 5529 5533 5536 5539 5544 5548 5553 5558 5564 5570 5579 5587 5596 5604
5580 5576 5571 5567 5563 5558 5554 5548 5543 5537 5531 5526 5520 5516 5512 5510 5507 5504 5502 5500 5501 5503 5505 5507 5510 5512 5514 5517 5519 5522 5525 5527 5529 5532 5536 5539 5544 5551 5559 5568 5577 5586 5595
5576 5572 5568 5564 5559 5554 5550 5545 5540 5534 5527 5522 5518 5514 5510 5507 5503 5498 5494 5492 5490 5491 5493 5496 5499 5502 5505 5508 5511 5514 5517 5519 5520 5521 5524 5527 5533 5540 5549 5558 5568 5577 5586
5572 5567 5563 5559 5555 5551 5546 5542 5537 5531 5525 5520 5516 5512 5507 5502 5498 5492 5485 5482 5481 5481 5482 5485 5488 5492 5495 5499 5502 5506 5508 5510 5511 5512 5515 5521 5528 5534 5542 5551 5560 5570 5579
5568 5564 5560 5556 5552 5548 5544 5540 5534 5528 5521 5517 5513 5509 5504 5499 5493 5488 5481 5477 5474 5472 5472 5474 5477 5482 5486 5491 5495 5499 5501 5503 5505 5509 5514 5519 5524 5531 5539 5547 5555 5565 5574
5566 5561 5556 5552 5549 5546 5542 5538 5532 5526 5519 5514 5511 5506 5501 5495 5490 5485 5478 5472 5467 5463 5462 5464 5467 5472 5478 5483 5488 5492 5495 5498 5502 5507 5512 5517 5522 5529 5535 5543 5552 5561 5570
5563 5558 5553 5549 5546 5543 5540 5536 5531 5525 5519 5513 5509 5504 5499 5494 5488 5482 5476 5469 5463 5457 5454 5455 5459 5465 5471 5477 5483 5487 5490 5493 5498 5503 5509 5514 5520 5526 5532 5539 5547 5556 5564